Moose Lake, MN

3:08 PM CST on December 15, 2019 (GMT -0600)
Moose Lake-Carlton County

Weather History for KMZH - November, 2019

Change the Weather History Date:

Thursday, November 14, 2019

  Actual Average Record
Temperature  
Mean Temperature 24 °F -  
Max Temperature 32 °F 37 °F 64 °F (1953)
Min Temperature 17 °F 21 °F -5 °F (1959)
Degree Days  
Heating Degree Days 40    
Moisture  
Dew Point 15 °F    
Average Humidity 64    
Maximum Humidity 80    
Minimum Humidity 47    
Precipitation  
Precipitation 0.00 in - - ()
Sea Level Pressure  
Sea Level Pressure 30.10 in    
Wind  
Wind Speed 5 mph ()    
Max Wind Speed 12 mph    
Max Gust Speed 18 mph    
Visibility 10.0 miles    
Events Snow    
Averages and records for this station are not official NWS values.
T = Trace of Precipitation, MM = Missing Value Source: Averaged Metar Reports

Daily Weather History Graph

Daily Weather History Graph

Search for Another Location

Airport or City:

Astronomy

Nov. 14, 2019 Rise Set
Actual Time 7:11 AM CST 4:39 PM CST
Civil Twilight 6:38 AM CST 5:12 PM CST
Nautical Twilight 6:02 AM CST 5:48 PM CST
Astronomical Twilight 5:26 AM CST 6:24 PM CST
Moon 6:20 PM CST (11/14) 9:11 AM CST (11/14)
Length of Visible Light 10h 33m
Length of Day
9h 28m
Waning Gibbous, 95% of the Moon is Illuminated
Nov 14
Waning Gibbous
Nov 19
Last Quarter
Nov 26
New
Dec 4
First Quarter
Dec 11
Full

Hourly Weather History & Observations

Time (CST) Temp. Windchill Dew Point Humidity Pressure Visibility Wind Dir Wind Speed Gust Speed Precip Events Conditions
12:15 AM 21.2 °F 13.6 °F 10.4 °F 63% 30.06 in 10.0 mi NNW 5.8 mph - N/A   Overcast
12:16 AM 21.2 °F 14.9 °F 10.4 °F 63% 30.06 in 10.0 mi NNW 4.6 mph - N/A   Overcast
12:35 AM 21.2 °F 14.9 °F 10.4 °F 63% 30.07 in 10.0 mi NW 4.6 mph - N/A Snow Light Snow
12:58 AM 21.2 °F 16.4 °F 10.4 °F 63% 30.08 in 10.0 mi WNW 3.5 mph - N/A   Overcast
1:16 AM 21.2 °F 16.4 °F 10.4 °F 63% 30.08 in 10.0 mi NNW 3.5 mph - N/A   Overcast
1:36 AM 21.2 °F - 10.4 °F 63% 30.08 in 10.0 mi Calm Calm - N/A   Overcast
1:55 AM 21.2 °F - 10.4 °F 63% 30.09 in 10.0 mi Calm Calm - N/A   Overcast
2:15 AM 21.2 °F 14.9 °F 12.2 °F 68% 30.10 in 10.0 mi WNW 4.6 mph - N/A Snow Light Snow
2:37 AM 21.2 °F 16.4 °F 12.2 °F 68% 30.10 in 10.0 mi WNW 3.5 mph - N/A Snow Light Snow
2:55 AM 21.2 °F 16.4 °F 12.2 °F 68% 30.11 in 10.0 mi WNW 3.5 mph - N/A   Overcast
3:15 AM 19.4 °F 12.8 °F 12.2 °F 74% 30.11 in 10.0 mi West 4.6 mph - N/A Snow Light Snow
3:16 AM 19.4 °F 12.8 °F 12.2 °F 74% 30.11 in 10.0 mi WNW 4.6 mph - N/A Snow Light Snow
3:35 AM 19.4 °F 14.3 °F 12.2 °F 74% 30.11 in 10.0 mi West 3.5 mph - N/A   Overcast
3:36 AM 19.4 °F 14.3 °F 12.2 °F 74% 30.11 in 10.0 mi West 3.5 mph - N/A   Overcast
3:58 AM 19.4 °F 11.5 °F 12.2 °F 74% 30.11 in 10.0 mi West 5.8 mph - N/A   Overcast
4:16 AM 19.4 °F - 12.2 °F 74% 30.11 in 10.0 mi Calm Calm - N/A   Overcast
4:36 AM 19.4 °F 11.5 °F 12.2 °F 74% 30.11 in 10.0 mi WNW 5.8 mph - N/A   Overcast
4:55 AM 19.4 °F 11.5 °F 12.2 °F 74% 30.12 in 10.0 mi NW 5.8 mph - N/A   Overcast
4:56 AM 19.4 °F 10.4 °F 12.2 °F 74% 30.12 in 10.0 mi WNW 6.9 mph - N/A   Overcast
5:15 AM 19.4 °F 12.8 °F 12.2 °F 74% 30.12 in 10.0 mi West 4.6 mph - N/A   Overcast
5:37 AM 19.4 °F 14.3 °F 12.2 °F 74% 30.12 in 10.0 mi West 3.5 mph - N/A   Overcast
5:55 AM 19.4 °F 12.8 °F 12.2 °F 74% 30.13 in 10.0 mi West 4.6 mph - N/A   Overcast
6:15 AM 19.4 °F 11.5 °F 12.2 °F 74% 30.13 in 10.0 mi West 5.8 mph - N/A   Overcast
6:16 AM 19.4 °F 12.8 °F 12.2 °F 74% 30.13 in 10.0 mi WSW 4.6 mph - N/A   Overcast
6:35 AM 19.4 °F 11.5 °F 12.2 °F 74% 30.13 in 7.0 mi West 5.8 mph - N/A   Overcast
6:58 AM 19.4 °F 14.3 °F 10.4 °F 68% 30.13 in 10.0 mi West 3.5 mph - N/A   Overcast
7:17 AM 17.6 °F 9.3 °F 10.4 °F 73% 30.13 in 10.0 mi WNW 5.8 mph - N/A   Overcast
7:36 AM 17.6 °F 8.2 °F 10.4 °F 73% 30.13 in 10.0 mi West 6.9 mph - N/A   Overcast
7:56 AM 19.4 °F 10.4 °F 12.2 °F 74% 30.13 in 10.0 mi West 6.9 mph - N/A   Overcast
8:15 AM 19.4 °F 9.5 °F 10.4 °F 68% 30.14 in 10.0 mi WSW 8.1 mph - N/A   Overcast
8:20 AM 19.4 °F 9.5 °F 10.4 °F 68% 30.14 in 10.0 mi West 8.1 mph - N/A   Overcast
8:37 AM 19.4 °F 10.4 °F 10.4 °F 68% 30.14 in 10.0 mi West 6.9 mph - N/A   Overcast
8:56 AM 19.4 °F 11.5 °F 10.4 °F 68% 30.14 in 10.0 mi WSW 5.8 mph - N/A   Mostly Cloudy
9:15 AM 21.2 °F 11.7 °F 12.2 °F 68% 30.14 in 10.0 mi WSW 8.1 mph - N/A   Mostly Cloudy
9:16 AM 21.2 °F 10.9 °F 12.2 °F 68% 30.14 in 10.0 mi WSW 9.2 mph - N/A   Mostly Cloudy
9:35 AM 21.2 °F 11.7 °F 12.2 °F 68% 30.13 in 10.0 mi West 8.1 mph - N/A   Scattered Clouds
9:36 AM 21.2 °F 11.7 °F 12.2 °F 68% 30.13 in 10.0 mi West 8.1 mph - N/A   Scattered Clouds
9:59 AM 23.0 °F 13.9 °F 12.2 °F 63% 30.12 in 10.0 mi WSW 8.1 mph 16.1 mph N/A   Clear
10:16 AM 23.0 °F 13.9 °F 12.2 °F 63% 30.13 in 10.0 mi WSW 8.1 mph - N/A   Clear
10:36 AM 24.8 °F 15.3 °F 12.2 °F 59% 30.13 in 10.0 mi WSW 9.2 mph - N/A   Clear
10:55 AM 26.6 °F 20.0 °F 12.2 °F 55% 30.13 in 10.0 mi WSW 5.8 mph - N/A   Clear
10:56 AM 26.6 °F 20.0 °F 12.2 °F 55% 30.13 in 10.0 mi WSW 5.8 mph - N/A   Clear
11:15 AM 26.6 °F 18.2 °F 12.2 °F 55% 30.12 in 10.0 mi SW 8.1 mph - N/A   Clear
11:36 AM 28.4 °F 18.5 °F 12.2 °F 51% 30.12 in 10.0 mi WSW 11.5 mph - N/A   Clear
11:56 AM 28.4 °F 19.1 °F 12.2 °F 51% 30.11 in 10.0 mi SW 10.4 mph - N/A   Clear
12:16 PM 28.4 °F 18.5 °F 12.2 °F 51% 30.09 in 10.0 mi SW 11.5 mph - N/A   Clear
12:57 PM 30.2 °F 23.4 °F 12.2 °F 47% 30.08 in 10.0 mi SW 6.9 mph - N/A   Scattered Clouds
1:16 PM 28.4 °F 18.5 °F 12.2 °F 51% 30.06 in 10.0 mi SW 11.5 mph 17.3 mph N/A   Overcast
1:35 PM 28.4 °F 20.4 °F 12.2 °F 51% 30.07 in 10.0 mi WSW 8.1 mph 18.4 mph N/A   Overcast
1:36 PM 28.4 °F 20.4 °F 12.2 °F 51% 30.07 in 10.0 mi WSW 8.1 mph 17.3 mph N/A   Overcast
1:55 PM 30.2 °F 22.6 °F 12.2 °F 47% 30.06 in 10.0 mi WSW 8.1 mph 18.4 mph N/A   Overcast
1:56 PM 30.2 °F 21.9 °F 12.2 °F 47% 30.06 in 10.0 mi WSW 9.2 mph 18.4 mph N/A   Overcast
2:18 PM 30.2 °F 21.3 °F 12.2 °F 47% 30.06 in 10.0 mi SW 10.4 mph 16.1 mph N/A   Overcast
2:36 PM 30.2 °F 22.6 °F 12.2 °F 47% 30.05 in 10.0 mi SW 8.1 mph - N/A   Overcast
2:56 PM 30.2 °F 21.3 °F 12.2 °F 47% 30.05 in 10.0 mi SW 10.4 mph - N/A   Overcast
3:16 PM 30.2 °F 21.9 °F 14.0 °F 51% 30.04 in 10.0 mi SW 9.2 mph - N/A   Overcast
3:35 PM 30.2 °F 21.9 °F 14.0 °F 51% 30.04 in 10.0 mi SSW 9.2 mph - N/A   Overcast
3:57 PM 30.2 °F 20.8 °F 14.0 °F 51% 30.04 in 10.0 mi SW 11.5 mph - N/A   Overcast
4:16 PM 30.2 °F 20.8 °F 14.0 °F 51% 30.03 in 10.0 mi SW 11.5 mph 16.1 mph N/A   Overcast
4:35 PM 30.2 °F 21.9 °F 14.0 °F 51% 30.03 in 10.0 mi SW 9.2 mph - N/A   Scattered Clouds
4:55 PM 28.4 °F 22.2 °F 15.8 °F 59% 30.05 in 10.0 mi SW 5.8 mph - N/A   Mostly Cloudy
4:56 PM 28.4 °F 22.2 °F 15.8 °F 59% 30.05 in 10.0 mi SW 5.8 mph - N/A   Mostly Cloudy
5:19 PM 30.2 °F 25.4 °F 15.8 °F 55% 30.06 in 10.0 mi WSW 4.6 mph - N/A   Overcast
5:37 PM 30.2 °F 25.4 °F 17.6 °F 60% 30.06 in 10.0 mi SW 4.6 mph - N/A   Overcast
5:55 PM 30.2 °F 23.4 °F 17.6 °F 60% 30.06 in 10.0 mi SSW 6.9 mph - N/A   Overcast
6:15 PM 30.2 °F 25.4 °F 17.6 °F 60% 30.07 in 10.0 mi SW 4.6 mph - N/A   Overcast
6:16 PM 30.2 °F 25.4 °F 17.6 °F 60% 30.07 in 10.0 mi SW 4.6 mph - N/A   Overcast
6:35 PM 30.2 °F 24.3 °F 17.6 °F 60% 30.07 in 10.0 mi SW 5.8 mph - N/A   Overcast
6:57 PM 30.2 °F 24.3 °F 17.6 °F 60% 30.07 in 10.0 mi SW 5.8 mph - N/A   Overcast
7:15 PM 30.2 °F 25.4 °F 19.4 °F 64% 30.07 in 10.0 mi SW 4.6 mph - N/A   Overcast
7:35 PM 30.2 °F 24.3 °F 19.4 °F 64% 30.06 in 10.0 mi SSW 5.8 mph - N/A   Overcast
7:55 PM 32.0 °F 26.4 °F 19.4 °F 60% 30.06 in 10.0 mi WSW 5.8 mph - N/A   Overcast
7:56 PM 32.0 °F 27.5 °F 19.4 °F 60% 30.06 in 10.0 mi WSW 4.6 mph - N/A   Overcast
8:18 PM 32.0 °F - 21.2 °F 64% 30.07 in 10.0 mi Calm Calm - N/A   Overcast
8:36 PM 32.0 °F 28.7 °F 21.2 °F 64% 30.07 in 10.0 mi West 3.5 mph - N/A   Overcast
8:56 PM 32.0 °F 28.7 °F 23.0 °F 69% 30.08 in 10.0 mi WSW 3.5 mph - N/A   Overcast
9:15 PM 32.0 °F 27.5 °F 23.0 °F 69% 30.08 in 10.0 mi SW 4.6 mph - N/A   Overcast
9:16 PM 32.0 °F 27.5 °F 23.0 °F 69% 30.08 in 10.0 mi SW 4.6 mph - N/A   Overcast
9:35 PM 32.0 °F 28.7 °F 23.0 °F 69% 30.09 in 10.0 mi SW 3.5 mph - N/A   Overcast
9:39 PM 32.0 °F 28.7 °F 23.0 °F 69% 30.09 in 10.0 mi SW 3.5 mph - N/A   Overcast
9:58 PM 32.0 °F 28.7 °F 23.0 °F 69% 30.10 in 10.0 mi SW 3.5 mph - N/A   Overcast
10:15 PM 32.0 °F 28.7 °F 23.0 °F 69% 30.11 in 10.0 mi SW 3.5 mph - N/A   Overcast
10:35 PM 32.0 °F 27.5 °F 24.8 °F 75% 30.12 in 10.0 mi WNW 4.6 mph - N/A   Overcast
10:36 PM 32.0 °F 27.5 °F 24.8 °F 75% 30.12 in 10.0 mi NW 4.6 mph - N/A   Overcast
10:55 PM 32.0 °F 24.8 °F 26.6 °F 80% 30.12 in 10.0 mi NNW 8.1 mph - N/A   Overcast
10:56 PM 32.0 °F 24.8 °F 26.6 °F 80% 30.12 in 10.0 mi NNW 8.1 mph - N/A   Mostly Cloudy
11:18 PM 32.0 °F 24.8 °F 24.8 °F 75% 30.13 in 10.0 mi NW 8.1 mph - N/A   Scattered Clouds
11:36 PM 32.0 °F 24.8 °F 23.0 °F 69% 30.13 in 10.0 mi NW 8.1 mph - N/A   Clear
11:56 PM 32.0 °F 25.6 °F 21.2 °F 64% 30.14 in 10.0 mi NW 6.9 mph - N/A   Clear